Kayrakty

Kazakhstan     48˚50′58″N   73˚36′13″E
temp.,
°C
wind,
m/s
gust,
m/s
humid.,
%
clouds,
%
prec.,
mm/h
press.,
hPa
HPBL,
m
29 november, sun
sun2900:00−11˚wsw111792100 1.5 1030675
03:00−14˚w101592100 0.6 1033571
06:00−15˚wnw71294100 1.1 1036585
09:00−15˚wnw51095100 0.6 1039470
12:00−14˚wnw6994100 1.1 1041475
15:00−13˚wnw6992100 0.4 1042514
18:00−14˚nw4895100 0.9 1044421
21:00−15˚nw479693 0.2 1045185
30 november, mon
mon3000:00−17˚nnw339896 0.3 104639
03:00−20˚n2310099 0.0 104720
06:00−21˚n2310099 0.1 104920
09:00−22˚nne2310097 0.0 104920
12:00−18˚ne239567 0.0 1050100
15:00−17˚nne23920 0.0 104836
18:00−20˚nne23950 0.0 105020
21:00−22˚ene22910 0.0 105120
1 december, tue
tue100:00−21˚ene23880 0.0 105021
03:00−20˚ene34920 0.0 104939
06:00−18˚ene44910 0.0 104956
09:00−17˚e34880 0.0 104842
12:00−13˚ene48840 0.0 1048181
15:00−12˚ne45850 0.0 104693
18:00−15˚ene44840 0.0 104741
21:00−16˚ene46810 0.0 104872
2 december, wed
wed200:00−15˚ene45810 0.0 104866
03:00−15˚ene44790 0.0 104751
06:00−15˚ene34760 0.0 104743
09:00−15˚ene34760 0.0 104631
12:00−11˚ene37780 0.0 1044144
15:00−10˚ene34780 0.0 104258
18:00−14˚ene34740 0.0 104224
21:00−15˚ene33700 0.0 104225
3 december, thu
thu300:00−15˚e33690 0.0 104120
03:00−16˚ene23650 0.0 104020
06:00−15˚ene23620 0.0 103920
09:00−15˚e23620 0.0 103920
12:00−12˚e22700 0.0 103721
15:00−11˚ene22690 0.0 103621
18:00−13˚ene23640 0.0 103621
21:00−15˚e23610 0.0 103620